Location: Seasalter
(51.3333°N, 1.0167°E)
Time: 18:36:12
(UTC+00:00)

Cosmos 1782 - Pass Details

Date: 26 September 2023
Orbit: 519 x 528 km, 82.5° (Epoch: 08 December)

Event Time Altitude Azimuth Distance (km) Brightness Sun altitude
Maximum altitude 02:43:14 30° 91° (E) 968 4.4 -27.7°
Exits shadow 02:43:15 30° 90° (E) 968 4.4 -27.7°
Drops below altitude 10° 02:46:37 10° 30° (NNE) 1,766 6.2 -27.3°
Enters shadow 03:48:22 -56° 195° (SSW) 11,208 9.4 -19.0°
